Regional Weather Roundup
Issued by NWS

Home | Current Version | Previous Version | Text Only | Print | Product List | Glossary Off
Versions: 1 2 3 4 5 6 7 8 9 10 11 12 13 14 15 16 17 18 19 20 21 22 23 24 25 26 27

000
ASUS45 KBOU 251507
RWRCO

WEATHER ROUNDUP FOR COLORADO
NATIONAL WEATHER SERVICE DENVER/BOULDER CO
900 AM MDT SAT MAR 25 2017

NOTE: "FAIR" INDICATES FEW OR NO CLOUDS BELOW 12000 FEET WITH NO
SIGNIFICANT WEATHER AND/OR OBSTRUCTIONS TO VISIBILITY.

COZ001>005-013-030-031-251600-
...NORTHWEST COLORADO...

CITY           SKY/WX    TMP DP  RH WIND       PRES   REMARKS
CRAIG          FAIR      42  25  50 E12       30.07F
HAYDEN         FAIR      37  21  52 E12       30.08F
MEEKER         FAIR      38  27  64 CALM      30.08S
MOUNT WERNER   NOT AVBL
STEAMBOAT SPGS FAIR      30  25  80 CALM      30.10F
WALDEN         NOT AVBL
$$

COZ006>008-011-251600-
...WEST CENTRAL VALLEYS...

CITY           SKY/WX    TMP DP  RH WIND       PRES   REMARKS
GRAND JUNCTION FAIR      48  29  47 SE17      30.06F
MONTROSE       FAIR      38  27  64 S3        30.12F
EAGLE          SUNNY     34  25  69 CALM      30.18F
RIFLE          FAIR      37  28  70 CALM      30.10F
DELTA          FAIR      41  27  59 CALM      30.11S
NUCLA          FAIR      41  25  52 E3        30.14S
$$

COZ017>023-064>068-251600-
...SOUTHWEST COLORADO...

CITY           SKY/WX    TMP DP  RH WIND       PRES   REMARKS
DURANGO        FAIR      35  24  64 CALM      30.15S
CORTEZ         FAIR      38  28  67 CALM      30.12F
PAGOSA SPRINGS FAIR      37  29  74 CALM      30.19S
TELLURIDE      NOT AVBL
WOLF CREEK PAS FAIR      30  14  51 SW8       30.32S WCI  23
$$

COZ009-010-012-014-032>034-037-058>063-251600-
...CENTRAL COLORADO...

CITY           SKY/WX    TMP DP  RH WIND       PRES   REMARKS
ASPEN          FAIR      35  20  54 CALM      30.13F
BUENA VISTA    FAIR      39  18  42 CALM      30.15F
COPPER MTN     FAIR      36  -9  14 S7        30.25S
BERTHOUD PASS  FAIR      30  19  64 NW16      30.24F WCI  19
COTTONWOOD PAS FAIR      43   9  24 CALM      30.18F
GUNNISON       FAIR      30  24  78 CALM      30.22F
KREMMLING      FAIR      34  28  80 CALM      30.18F
LEADVILLE      FAIR      31   5  33 CALM      30.17F
MONARCH PASS   FAIR      30  -8  19 W20       30.36R WCI  18
SALIDA         FAIR      39  21  48 N14       30.21F
SUNLIGHT       FAIR      28  18  64 SE3       30.23S
WILKERSON PASS FAIR      34  -9  15 W9        30.24S WCI  26
$$

COZ069>075-251600-
...SAN LUIS VALLEY/SANGRE DE CRISTO MOUNTAINS...

CITY           SKY/WX    TMP DP  RH WIND       PRES   REMARKS
ALAMOSA        FAIR      32  29  88 E5        30.20F WCI  27
LA VETA PASS   NOT AVBL
SAGUACHE       FAIR      36  21  55 W3        30.21F
$$

COZ035-036-038>040-251600-
...NORTHERN COLORADO FRONT RANGE...

CITY           SKY/WX    TMP DP  RH WIND       PRES   REMARKS
DENVER INTL AP PTSUNNY   43  31  62 S7        30.04S
DMNS CITY PARK   N/A     44  27  51 SE10      30.03F
AURORA         MOSUNNY   45  28  51 S12       30.04F
FRONT RANGE AP MOSUNNY   41  32  70 S12       30.05F
ERIE MUNI ARPT FAIR      38  32  78 CALM      30.04F
BOULDER MUN AP FAIR      41  30  65 CALM      30.03F
CENTENNIAL     FAIR      41  29  62 SE8       30.04F
BROOMFIELD     PTSUNNY   41  32  70 CALM      30.04F
FORT COLLINS   FAIR      39  27  62 NE5       30.05S
LONGMONT       FAIR      44  32  63 CALM      30.06S
$$

COZ041-046-047-076>085-087-088-251600-
...PIKES PEAK/PALMER DIVIDE AND SOUTHERN FOOTHILLS...

CITY           SKY/WX    TMP DP  RH WIND       PRES   REMARKS
COLO. SPRINGS  FAIR      41  30  65 E5        30.09S
A. F. ACADEMY  FAIR      33  29  87 N6        30.08S WCI  27
SCHRIEVER AFB  FAIR      40  30  67 CALM      30.10S
ELLICOTT         N/A    N/A N/A N/A SW7       30.08R
FALCON         FAIR      42  27  56 SW3       30.10S
FORT CARSON    FAIR      39  30  69 N3        30.08R
LIMON          FAIR      37  30  75 CALM      30.08S
MONUMENT HILL  FAIR      34  25  69 S10       30.09S WCI  26
TRINIDAD       FAIR      37  29  72 SW14      30.10F
$$

COZ042>045-048>051-090-091-251600-
...NORTHEAST COLORADO...

CITY           SKY/WX    TMP DP  RH WIND       PRES   REMARKS
GREELEY ARPT   FAIR      33  27  78 CALM      30.07
AKRON          FAIR      44  34  67 SW9       30.05S
BURLINGTON     FAIR      40  35  83 W6        30.08S
WRAY           FAIR      37  34  87 W6        30.07F
STERLING       FAIR      37  36  93 SW7       30.06S
HOLYOKE        FAIR      41  34  75 CALM      30.06F
FORT MORGAN    FAIR      37  32  81 CALM      30.06F
$$

COZ086-089-092>099-251600-
...SOUTHEAST COLORADO...

CITY           SKY/WX    TMP DP  RH WIND       PRES   REMARKS
PUEBLO         FAIR      37  31  78 S3        30.09S
LA JUNTA       FAIR      41  35  79 W7        30.09F
LAMAR          FAIR      41  34  76 W7        30.08S
SPRINGFIELD      N/A     46  35  65 NW10      30.08S
$$




USA.gov is the U.S. government's official web portal to all federal, state and local government web resources and services.